Location: Gerlach
(40.6516°N, 119.3568°W)
Time: 15:56:35
(UTC-07:00)

A-11 Canister half - Pass Details

Date: 22 February 2024
Orbit: 1525 x 1683 km, 47.3° (Epoch: 22 April)

Event Time Altitude Azimuth Distance (km) Brightness Sun altitude
Exits shadow 06:01:58 - 273° (W) 3,760 10.3 -8.3°
Reaches altitude 10° 06:02:15 10° 272° (W) 3,707 10.3 -8.3°
Maximum altitude 06:07:45 17° 235° (SW) 3,173 10.2 -7.3°
Drops below altitude 10° 06:13:21 10° 198° (SSW) 3,753 11.0 -6.2°
Sets 06:17:51 0° 180° (S) 4,763 11.7 -5.4°
